Weather History for KENW - August, 2013

Change the Weather History Date:

Thursday, August 29, 2013

  Actual Average Record
Temperature  
Mean Temperature 73 °F -  
Max Temperature 87 °F 78 °F 97 °F (1953)
Min Temperature 60 °F 59 °F 43 °F (1965)
Cooling Degree Days 8    
Growing Degree Days 23 (Base 50)    
Moisture  
Dew Point 64 °F    
Average Humidity 85    
Maximum Humidity 100    
Minimum Humidity 49    
Precipitation  
Precipitation 0.00 in - - ()
Sea Level Pressure  
Sea Level Pressure 30.05 in    
Wind  
Wind Speed 1 mph (SSE)    
Max Wind Speed 9 mph    
Max Gust Speed -    
Visibility 4 miles    
Events Fog    
Averages and records for this station are not official NWS values.
T = Trace of Precipitation, MM = Missing Value Source: NWS Daily Summary

Daily Weather History Graph

Daily Weather History Graph

Search for Another Location

Airport or City:

Trip Planner

Search our weather history database for the weather conditions in past years. The results will help you decide how hot, cold, wet, or windy it might be!

Date:

Astronomy

Aug. 29, 2013 Rise Set
Actual Time 6:13 AM CDT 7:30 PM CDT
Civil Twilight 5:44 AM CDT 7:59 PM CDT
Nautical Twilight 5:09 AM CDT 8:34 PM CDT
Astronomical Twilight 4:32 AM CDT 9:11 PM CDT
Moon 12:01 AM CDT (8/29) 3:03 PM CDT (8/29)
Length of Visible Light 14h 15m
Length of Day
13h 16m
Last Quarter, 38% of the Moon is Illuminated
Aug 29
Last Quarter
Sep 5
New
Sep 12
First Quarter
Sep 19
Full
Sep 26
Last Quarter

Hourly Weather History & Observations

Time (CDT) Temp. Heat Index Dew Point Humidity Pressure Visibility Wind Dir Wind Speed Gust Speed Precip Events Conditions
12:08 AM 64.4 °F - 62.6 °F 94% 30.06 in 0.2 mi Calm Calm - N/A Fog Fog
12:38 AM 64.4 °F - 62.6 °F 94% 30.06 in 0.2 mi Calm Calm - N/A Fog Fog
12:51 AM 62.6 °F - 62.6 °F 100% 30.06 in 1.0 mi Calm Calm - N/A   Clear
12:52 AM 62.1 °F - 61.0 °F 96% 30.05 in 1.2 mi Calm Calm - N/A   Clear
12:57 AM 62.6 °F - 60.8 °F 94% 30.06 in 0.2 mi Calm Calm - N/A Fog Fog
1:04 AM 62.6 °F - 60.8 °F 94% 30.05 in 0.2 mi Calm Calm - N/A Fog Fog
1:35 AM 62.6 °F - 60.8 °F 94% 30.06 in 0.2 mi Calm Calm - N/A Fog Fog
1:53 AM 63.0 °F - 62.1 °F 97% 30.05 in 0.2 mi Calm Calm - N/A Fog Fog
2:03 AM 62.6 °F - 62.6 °F 100% 30.06 in 0.2 mi Calm Calm - N/A Fog Fog
2:12 AM 62.6 °F - 60.8 °F 94% 30.05 in 0.5 mi Calm Calm - N/A Fog Fog
2:16 AM 62.6 °F - 60.8 °F 94% 30.05 in 0.2 mi Calm Calm - N/A Fog Fog
2:36 AM 62.6 °F - 60.8 °F 94% 30.05 in 0.5 mi Calm Calm - N/A Fog Fog
2:53 AM 62.1 °F - 61.0 °F 96% 30.05 in 0.2 mi West 3.5 mph - N/A Fog Fog
3:53 AM 62.1 °F - 62.1 °F 100% 30.05 in 0.2 mi West 3.5 mph - N/A Fog Fog
4:53 AM 61.0 °F - 60.1 °F 97% 30.06 in 0.2 mi Calm Calm - N/A Fog Fog
5:07 AM 60.8 °F - 60.8 °F 100% 30.07 in 0.2 mi West 3.5 mph - N/A Fog Fog
5:53 AM 62.1 °F - 60.1 °F 93% 30.06 in 0.2 mi Calm Calm - N/A Fog Fog
6:25 AM 60.8 °F - 60.8 °F 100% 30.08 in 0.2 mi WNW 3.5 mph - N/A Fog Fog
6:35 AM 60.8 °F - 60.8 °F 100% 30.08 in 1.2 mi Calm Calm - N/A   Partly Cloudy
6:39 AM 60.8 °F - 60.8 °F 100% 30.08 in 0.5 mi Calm Calm - N/A Fog Fog
6:48 AM 60.8 °F - 60.8 °F 100% 30.08 in 0.8 mi Calm Calm - N/A   Partly Cloudy
6:53 AM 62.1 °F - 60.1 °F 93% 30.08 in 0.8 mi Calm Calm - N/A   Partly Cloudy
7:26 AM 64.4 °F - 64.4 °F 100% 30.09 in 2.0 mi Calm Calm - N/A   Partly Cloudy
7:53 AM 68.0 °F - 66.9 °F 96% 30.09 in 3.0 mi Calm Calm - N/A   Partly Cloudy
8:53 AM 75.0 °F - 69.1 °F 82% 30.09 in 7.0 mi Calm Calm - N/A   Clear
9:53 AM 80.1 °F 83.2 °F 70.0 °F 71% 30.09 in 8.0 mi Calm Calm - N/A   Clear
10:53 AM 82.0 °F 84.9 °F 68.0 °F 62% 30.09 in 10.0 mi Calm Calm - N/A   Clear
11:53 AM 84.9 °F 88.2 °F 68.0 °F 57% 30.09 in 9.0 mi Variable 6.9 mph - N/A   Partly Cloudy
12:53 PM 84.9 °F 87.1 °F 66.0 °F 53% 30.07 in 10.0 mi Variable 5.8 mph - N/A   Partly Cloudy
1:53 PM 86.0 °F 88.8 °F 66.9 °F 53% 30.06 in 10.0 mi East 9.2 mph - N/A   Partly Cloudy
2:53 PM 86.0 °F 88.2 °F 66.0 °F 51% 30.04 in 10.0 mi ESE 9.2 mph - N/A   Clear
3:53 PM 86.0 °F 87.6 °F 64.9 °F 49% 30.03 in 10.0 mi SE 8.1 mph - N/A   Clear
4:53 PM 84.0 °F 85.8 °F 64.9 °F 53% 30.03 in 9.0 mi East 8.1 mph - N/A   Clear
5:53 PM 82.9 °F 84.6 °F 64.9 °F 54% 30.01 in 9.0 mi ESE 6.9 mph - N/A   Clear
6:53 PM 79.0 °F - 66.0 °F 64% 30.01 in 8.0 mi SE 8.1 mph - N/A   Clear
7:53 PM 75.9 °F - 66.0 °F 71% 30.01 in 5.0 mi ESE 4.6 mph - N/A   Haze
8:53 PM 73.9 °F - 66.0 °F 76% 30.00 in 9.0 mi ESE 5.8 mph - N/A   Clear
9:53 PM 73.0 °F - 68.0 °F 84% 29.99 in 8.0 mi SSE 4.6 mph - N/A   Clear
10:53 PM 69.1 °F - 66.9 °F 93% 29.99 in 5.0 mi SW 3.5 mph - N/A   Clear
11:53 PM 69.1 °F - 66.0 °F 90% 29.99 in 5.0 mi Calm Calm - N/A   Clear